Time,TemperatureF,DewpointF,PressureIn,WindDirection,WindDirectionDegrees,WindSpeedMPH,WindSpeedGustMPH,Humidity,HourlyPrecipIn,Conditions,Clouds,dailyrainin,SolarRadiationWatts/m^2,SoftwareType,DateUTC
2013-03-05 00:00:00,26.3,20.7,30.09,East,88,0.7,3.6,79,0.00,OVC,,0.00,0.0,WeatherDisplay:10.37,2013-03-05 06:00:00,
2013-03-05 00:05:00,26.3,20.7,30.09,ENE,78,1.2,2.4,79,0.00,OVC,,0.00,0.0,WeatherDisplay:10.37,2013-03-05 06:05:00,
2013-03-05 00:10:00,26.1,20.8,30.09,ENE,70,1.6,5.8,80,0.00,OVC,,0.00,0.0,WeatherDisplay:10.37,2013-03-05 06:10:00,
2013-03-05 00:15:00,26.1,20.8,30.09,East,87,0.0,0.0,80,0.00,OVC,,0.00,0.0,WeatherDisplay:10.37,2013-03-05 06:15:00,
2013-03-05 00:20:00,26.1,20.8,30.09,East,82,0.8,3.6,80,0.00,OVC,,0.00,0.0,WeatherDisplay:10.37,2013-03-05 06:20:00,
2013-03-05 00:25:00,26.1,20.8,30.09,ENE,69,4.5,7.2,80,0.00,BKN,,0.00,0.0,WeatherDisplay:10.37,2013-03-05 06:25:00,
2013-03-05 00:30:00,26.1,20.8,30.09,East,93,0.1,1.2,80,0.00,BKN,,0.00,0.0,WeatherDisplay:10.37,2013-03-05 06:30:00,
2013-03-05 00:35:00,26.1,20.8,30.09,East,92,0.4,2.4,80,0.00,BKN,,0.00,0.0,WeatherDisplay:10.37,2013-03-05 06:35:00,
2013-03-05 00:40:00,26.1,20.8,30.09,East,92,1.1,4.8,80,0.00,BKN,,0.00,0.0,WeatherDisplay:10.37,2013-03-05 06:40:00,
2013-03-05 00:45:00,26.1,21.1,30.09,East,89,2.2,7.2,81,0.00,BKN,,0.00,0.0,WeatherDisplay:10.37,2013-03-05 06:45:00,
2013-03-05 00:50:00,26.0,21.0,30.09,East,86,1.6,3.6,81,0.00,BKN,,0.00,0.0,WeatherDisplay:10.37,2013-03-05 06:50:00,
2013-03-05 00:55:00,26.0,21.0,30.09,East,86,0.4,2.4,81,0.00,BKN,,0.00,0.0,WeatherDisplay:10.37,2013-03-05 06:55:00,
2013-03-05 01:00:00,26.0,21.0,30.08,NNE,31,0.0,0.0,81,0.00,BKN,,0.00,0.0,WeatherDisplay:10.37,2013-03-05 07:00:00,
2013-03-05 01:05:00,26.0,21.3,30.08,NE,44,2.4,6.0,82,0.00,BKN,,0.00,0.0,WeatherDisplay:10.37,2013-03-05 07:05:00,
2013-03-05 01:10:00,25.8,21.1,30.08,East,90,4.2,6.0,82,0.00,BKN,,0.00,0.0,WeatherDisplay:10.37,2013-03-05 07:10:00,
2013-03-05 01:15:00,25.8,21.1,30.07,NE,51,1.1,4.6,82,0.00,BKN,,0.00,0.0,WeatherDisplay:10.37,2013-03-05 07:15:00,
2013-03-05 01:20:00,25.8,21.3,30.07,NE,49,0.8,3.6,83,0.00,BKN,,0.00,0.0,WeatherDisplay:10.37,2013-03-05 07:20:00,
2013-03-05 01:25:00,25.8,21.3,30.07,NE,46,0.2,3.6,83,0.00,BKN,,0.00,0.0,WeatherDisplay:10.37,2013-03-05 07:25:00,
2013-03-05 01:30:00,25.8,21.3,30.07,East,88,1.1,4.8,83,0.00,BKN,,0.00,0.0,WeatherDisplay:10.37,2013-03-05 07:30:00,
2013-03-05 01:35:00,25.8,21.3,30.07,East,98,1.6,5.8,83,0.00,BKN,,0.00,0.0,WeatherDisplay:10.37,2013-03-05 07:35:00,
2013-03-05 01:40:00,25.8,21.6,30.07,ENE,68,2.9,8.4,84,0.00,BKN,,0.00,0.0,WeatherDisplay:10.37,2013-03-05 07:40:00,
2013-03-05 01:45:00,25.8,21.6,30.06,ENE,65,1.2,6.9,84,0.00,BKN,,0.00,0.0,WeatherDisplay:10.37,2013-03-05 07:45:00,
2013-03-05 01:50:00,26.0,21.8,30.06,ENE,67,0.4,2.4,84,0.00,BKN,,0.00,0.0,WeatherDisplay:10.37,2013-03-05 07:50:00,
2013-03-05 01:55:00,26.0,21.8,30.06,ENE,78,0.3,3.5,84,0.00,BKN,,0.00,0.0,WeatherDisplay:10.37,2013-03-05 07:55:00,
2013-03-05 02:00:00,26.0,21.8,30.06,East,88,4.7,8.4,84,0.00,BKN,,0.00,0.0,WeatherDisplay:10.37,2013-03-05 08:00:00,
2013-03-05 02:05:00,26.0,21.8,30.06,East,83,0.4,1.2,84,0.00,BKN,,0.00,0.0,WeatherDisplay:10.37,2013-03-05 08:05:00,
2013-03-05 02:10:00,26.0,21.8,30.06,NE,50,0.0,0.0,84,0.00,BKN,,0.00,0.0,WeatherDisplay:10.37,2013-03-05 08:10:00,
2013-03-05 02:15:00,26.0,22.1,30.05,ENE,63,0.8,3.6,85,0.00,OVC,,0.00,0.0,WeatherDisplay:10.37,2013-03-05 08:15:00,
2013-03-05 02:20:00,26.1,22.2,30.05,ENE,63,0.0,0.0,85,0.00,OVC,,0.00,0.0,WeatherDisplay:10.37,2013-03-05 08:20:00,
2013-03-05 02:25:00,26.1,22.2,30.05,NE,39,0.0,2.4,85,0.00,OVC,,0.00,0.0,WeatherDisplay:10.37,2013-03-05 08:25:00,
2013-03-05 02:30:00,26.1,22.2,30.04,NE,49,0.0,2.3,85,0.00,OVC,,0.00,0.0,WeatherDisplay:10.37,2013-03-05 08:30:00,
2013-03-05 02:35:00,26.1,22.2,30.04,ENE,65,0.1,1.2,85,0.00,OVC,,0.00,0.0,WeatherDisplay:10.37,2013-03-05 08:35:00,
2013-03-05 02:40:00,26.1,22.2,30.04,NNE,20,0.1,2.3,85,0.00,OVC,,0.00,0.0,WeatherDisplay:10.37,2013-03-05 08:40:00,
2013-03-05 02:45:00,26.1,22.2,30.04,East,83,3.0,6.0,85,0.00,OVC,,0.00,0.0,WeatherDisplay:10.37,2013-03-05 08:45:00,
2013-03-05 02:50:00,26.1,22.2,30.04,NE,49,4.0,6.0,85,0.00,OVC,,0.00,0.0,WeatherDisplay:10.37,2013-03-05 08:50:00,
2013-03-05 02:55:00,26.1,21.9,30.04,ENE,72,1.7,4.8,84,0.00,OVC,,0.00,0.0,WeatherDisplay:10.37,2013-03-05 08:55:00,
2013-03-05 03:00:00,26.0,21.8,30.02,NNE,32,3.6,6.0,84,0.00,OVC,,0.00,0.0,WeatherDisplay:10.37,2013-03-05 09:00:00,
2013-03-05 03:05:00,26.0,21.8,30.02,ENE,58,0.3,1.2,84,0.00,OVC,,0.00,0.0,WeatherDisplay:10.37,2013-03-05 09:05:00,
2013-03-05 03:10:00,26.0,21.8,30.02,ENE,76,4.4,6.0,84,0.00,OVC,,0.00,0.0,WeatherDisplay:10.37,2013-03-05 09:10:00,
2013-03-05 03:15:00,26.0,21.8,30.02,East,85,2.4,5.8,84,0.00,BKN,,0.00,0.0,WeatherDisplay:10.37,2013-03-05 09:15:00,
2013-03-05 03:20:00,26.0,21.8,30.02,ENE,74,5.9,8.4,84,0.00,BKN,,0.00,0.0,WeatherDisplay:10.37,2013-03-05 09:20:00,
2013-03-05 03:25:00,26.1,21.9,30.02,ENE,75,6.1,7.2,84,0.00,BKN,,0.00,0.0,WeatherDisplay:10.37,2013-03-05 09:25:00,
2013-03-05 03:30:00,26.1,21.6,30.01,ENE,67,6.7,10.4,83,0.00,BKN,,0.00,0.0,WeatherDisplay:10.37,2013-03-05 09:30:00,
2013-03-05 03:35:00,26.1,21.6,30.01,ENE,57,0.3,8.1,83,0.00,BKN,,0.00,0.0,WeatherDisplay:10.37,2013-03-05 09:35:00,
2013-03-05 03:40:00,26.1,21.6,30.01,East,99,2.4,6.0,83,0.00,BKN,,0.00,0.0,WeatherDisplay:10.37,2013-03-05 09:40:00,
2013-03-05 03:45:00,26.1,21.4,30.01,ENE,63,2.1,8.1,82,0.00,BKN,,0.00,0.0,WeatherDisplay:10.37,2013-03-05 09:45:00,
2013-03-05 03:50:00,26.3,21.6,30.01,ENE,70,2.5,6.9,82,0.00,BKN,,0.00,0.0,WeatherDisplay:10.37,2013-03-05 09:50:00,
2013-03-05 03:55:00,26.3,21.3,30.01,ENE,62,1.4,3.6,81,0.00,BKN,,0.00,0.0,WeatherDisplay:10.37,2013-03-05 09:55:00,
2013-03-05 04:00:00,26.3,21.3,30.01,East,80,0.0,8.1,81,0.00,BKN,,0.00,0.0,WeatherDisplay:10.37,2013-03-05 10:00:00,
2013-03-05 04:05:00,26.3,21.3,30.01,East,85,5.8,7.2,81,0.00,BKN,,0.00,0.0,WeatherDisplay:10.37,2013-03-05 10:05:00,
2013-03-05 04:10:00,26.4,21.1,30.01,East,81,5.4,6.9,80,0.00,-SN,,0.00,0.0,WeatherDisplay:10.37,2013-03-05 10:10:00,
2013-03-05 04:15:00,26.4,21.1,30.01,ENE,57,0.5,3.6,80,0.00,-SN,,0.00,0.0,WeatherDisplay:10.37,2013-03-05 10:15:00,
2013-03-05 04:20:00,26.4,21.1,30.01,East,99,6.0,7.2,80,0.00,-SN,,0.00,0.0,WeatherDisplay:10.37,2013-03-05 10:20:00,
2013-03-05 04:25:00,26.4,20.8,30.01,ENE,66,4.6,6.0,79,0.00,-SN,,0.00,0.0,WeatherDisplay:10.37,2013-03-05 10:25:00,
2013-03-05 04:30:00,26.6,21.0,30.00,ENE,76,4.7,7.2,79,0.00,-SN,,0.00,0.0,WeatherDisplay:10.37,2013-03-05 10:30:00,
2013-03-05 04:35:00,26.6,21.0,30.00,East,91,1.1,4.8,79,0.00,-SN,,0.00,0.0,WeatherDisplay:10.37,2013-03-05 10:35:00,
2013-03-05 04:40:00,26.6,21.0,30.00,NE,48,0.9,2.4,79,0.00,-SN,,0.00,0.0,WeatherDisplay:10.37,2013-03-05 10:40:00,
2013-03-05 04:45:00,26.6,20.7,30.00,East,92,0.0,0.0,78,0.00,-SN,,0.00,0.0,WeatherDisplay:10.37,2013-03-05 10:45:00,
2013-03-05 04:50:00,26.6,20.7,30.00,East,86,2.3,4.8,78,0.00,-SN,,0.00,0.0,WeatherDisplay:10.37,2013-03-05 10:50:00,
2013-03-05 04:55:00,26.6,20.7,30.00,East,92,0.3,2.4,78,0.00,-SN,,0.00,0.0,WeatherDisplay:10.37,2013-03-05 10:55:00,
2013-03-05 05:00:00,26.6,20.4,30.01,East,80,0.0,1.2,77,0.00,-SN,,0.00,0.0,WeatherDisplay:10.37,2013-03-05 11:00:00,
2013-03-05 05:05:00,26.6,20.4,30.01,ENE,78,0.1,1.2,77,0.00,-SN,,0.00,0.0,WeatherDisplay:10.37,2013-03-05 11:05:00,
2013-03-05 05:10:00,26.6,20.4,30.01,ENE,72,0.0,0.0,77,0.00,-SN,,0.00,0.0,WeatherDisplay:10.37,2013-03-05 11:10:00,
2013-03-05 05:15:00,26.6,20.4,30.00,NE,37,0.2,2.3,77,0.00,-SN,,0.00,0.0,WeatherDisplay:10.37,2013-03-05 11:15:00,
2013-03-05 05:20:00,26.6,20.4,30.00,NE,37,0.0,1.2,77,0.00,-SN,,0.00,0.0,WeatherDisplay:10.37,2013-03-05 11:20:00,
2013-03-05 05:25:00,26.6,20.4,30.00,ENE,61,1.5,4.8,77,0.00,-SN,,0.00,0.0,WeatherDisplay:10.37,2013-03-05 11:25:00,
2013-03-05 05:30:00,26.6,20.1,30.01,NNE,30,0.7,3.6,76,0.00,-SN,,0.00,0.0,WeatherDisplay:10.37,2013-03-05 11:30:00,
2013-03-05 05:35:00,26.4,19.9,30.01,NE,40,1.0,3.6,76,0.00,-SN,,0.00,0.0,WeatherDisplay:10.37,2013-03-05 11:35:00,
2013-03-05 05:40:00,26.4,20.2,30.01,NE,45,1.6,4.8,77,0.00,-SN,,0.00,0.0,WeatherDisplay:10.37,2013-03-05 11:40:00,
2013-03-05 05:45:00,26.4,20.2,30.01,NE,49,2.1,4.8,77,0.00,-SN,,0.00,0.0,WeatherDisplay:10.37,2013-03-05 11:45:00,
2013-03-05 05:50:00,26.3,20.1,30.01,ENE,58,0.1,4.6,77,0.00,-SN,,0.00,0.0,WeatherDisplay:10.37,2013-03-05 11:50:00,
2013-03-05 05:55:00,26.1,20.2,30.01,ENE,69,0.0,1.2,78,0.00,-SN,,0.00,0.0,WeatherDisplay:10.37,2013-03-05 11:55:00,
2013-03-05 06:02:00,26.0,20.4,30.01,NE,40,1.7,3.6,79,0.00,-SN,,0.00,0.0,WeatherDisplay:10.37,2013-03-05 12:02:00,
2013-03-05 06:07:00,25.8,20.5,30.01,NNE,28,1.5,3.6,80,0.00,-SN,,0.00,0.0,WeatherDisplay:10.37,2013-03-05 12:07:00,
2013-03-05 06:12:00,25.8,20.5,30.01,NNE,28,0.6,2.4,80,0.00,-SN,,0.00,0.0,WeatherDisplay:10.37,2013-03-05 12:12:00,
2013-03-05 06:17:00,25.8,20.8,30.01,NNE,21,0.0,0.0,81,0.00,-SN,,0.00,0.0,WeatherDisplay:10.37,2013-03-05 12:17:00,
2013-03-05 06:22:00,25.7,20.7,30.01,NNE,23,0.1,1.2,81,0.00,-SN,,0.00,0.0,WeatherDisplay:10.37,2013-03-05 12:22:00,
2013-03-05 06:27:00,25.7,20.7,30.01,NNE,23,0.0,1.2,81,0.00,-SN,,0.00,0.0,WeatherDisplay:10.37,2013-03-05 12:27:00,
2013-03-05 06:32:00,25.6,20.9,30.01,NNE,23,0.0,0.0,82,0.00,-SN,,0.00,0.0,WeatherDisplay:10.37,2013-03-05 12:32:00,
2013-03-05 06:37:00,25.4,21.0,30.01,NNE,23,1.0,2.4,83,0.00,-SN,,0.00,0.0,WeatherDisplay:10.37,2013-03-05 12:37:00,
2013-03-05 06:42:00,25.3,21.1,30.01,NE,46,0.1,2.3,84,0.00,-SN,,0.00,0.0,WeatherDisplay:10.37,2013-03-05 12:42:00,
2013-03-05 06:47:00,25.1,21.2,30.01,NE,40,0.2,1.2,85,0.00,-SN,,0.00,5.0,WeatherDisplay:10.37,2013-03-05 12:47:00,
2013-03-05 06:52:00,25.0,21.4,30.01,North,9,1.7,6.0,86,0.00,-SN,,0.00,7.0,WeatherDisplay:10.37,2013-03-05 12:52:00,
2013-03-05 06:57:00,24.8,21.5,30.01,North,9,0.1,1.2,87,0.00,-SN,,0.00,7.0,WeatherDisplay:10.37,2013-03-05 12:57:00,
2013-03-05 07:02:00,24.8,21.8,30.02,North,9,0.0,1.2,88,0.00,-SN,,0.00,7.0,WeatherDisplay:10.37,2013-03-05 13:02:00,
2013-03-05 07:07:00,24.7,21.7,30.02,North,9,0.0,0.0,88,0.00,-SN,,0.00,9.0,WeatherDisplay:10.37,2013-03-05 13:07:00,
2013-03-05 07:12:00,24.7,21.9,30.02,North,9,0.1,1.2,89,0.00,-SN,,0.00,11.0,WeatherDisplay:10.37,2013-03-05 13:12:00,
2013-03-05 07:17:00,24.7,21.9,30.02,North,9,1.2,4.8,89,0.00,-SN,,0.00,11.0,WeatherDisplay:10.37,2013-03-05 13:17:00,
2013-03-05 07:22:00,24.5,22.0,30.02,North,9,0.8,3.6,90,0.00,-SN,,0.00,16.0,WeatherDisplay:10.37,2013-03-05 13:22:00,
2013-03-05 07:27:00,24.5,22.0,30.02,North,9,0.6,2.4,90,0.00,-SN,,0.00,25.0,WeatherDisplay:10.37,2013-03-05 13:27:00,
2013-03-05 07:32:00,24.5,22.0,30.02,North,9,0.0,0.0,90,0.00,-SN,,0.00,37.0,WeatherDisplay:10.37,2013-03-05 13:32:00,
2013-03-05 07:37:00,24.5,22.0,30.02,North,5,1.1,3.6,90,0.00,-SN,,0.00,58.0,WeatherDisplay:10.37,2013-03-05 13:37:00,
2013-03-05 07:42:00,24.5,22.5,30.02,NE,56,2.4,3.6,92,0.00,-SN,,0.00,74.0,WeatherDisplay:10.37,2013-03-05 13:42:00,
2013-03-05 07:47:00,24.5,22.2,30.02,NNE,33,1.9,8.4,91,0.00,-SN,,0.00,81.0,WeatherDisplay:10.37,2013-03-05 13:47:00,
2013-03-05 07:52:00,24.7,22.4,30.02,NNE,24,4.7,8.1,91,0.00,-SN,,0.00,91.0,WeatherDisplay:10.37,2013-03-05 13:52:00,
2013-03-05 07:57:00,24.7,22.4,30.02,NNE,13,3.2,6.0,91,0.00,-SN,,0.00,95.0,WeatherDisplay:10.37,2013-03-05 13:57:00,
2013-03-05 08:02:00,24.7,22.4,30.02,North,10,6.4,9.6,91,0.00,-SN,,0.00,100.0,WeatherDisplay:10.37,2013-03-05 14:02:00,
2013-03-05 08:07:00,24.7,22.4,30.02,NNE,19,3.2,4.8,91,0.00,-SN,,0.00,90.0,WeatherDisplay:10.37,2013-03-05 14:07:00,
2013-03-05 08:12:00,24.7,22.4,30.02,NE,34,5.2,7.2,91,0.00,-SN,,0.00,86.0,WeatherDisplay:10.37,2013-03-05 14:12:00,
2013-03-05 08:17:00,24.7,22.4,30.02,NNE,33,1.6,5.8,91,0.00,-SN,,0.00,74.0,WeatherDisplay:10.37,2013-03-05 14:17:00,
2013-03-05 08:22:00,24.7,22.4,30.02,NE,34,3.7,5.8,91,0.00,-SN,,0.00,65.0,WeatherDisplay:10.37,2013-03-05 14:22:00,
2013-03-05 08:27:00,24.7,22.4,30.02,NNE,24,7.1,8.4,91,0.00,-SN,,0.00,69.0,WeatherDisplay:10.37,2013-03-05 14:27:00,
2013-03-05 08:32:00,24.7,22.7,30.02,NE,41,6.8,8.4,92,0.00,-SN,,0.00,77.0,WeatherDisplay:10.37,2013-03-05 14:32:00,
2013-03-05 08:37:00,24.7,22.7,30.02,NNE,13,2.2,4.6,92,0.00,-SN,,0.00,84.0,WeatherDisplay:10.37,2013-03-05 14:37:00,
2013-03-05 08:42:00,24.8,22.8,30.02,NE,47,3.9,4.8,92,0.00,-SN,,0.00,74.0,WeatherDisplay:10.37,2013-03-05 14:42:00,
2013-03-05 08:47:00,24.8,22.8,30.03,ENE,60,3.5,6.0,92,0.00,-SN,,0.00,67.0,WeatherDisplay:10.37,2013-03-05 14:47:00,
2013-03-05 08:52:00,24.8,22.8,30.03,NE,34,2.9,3.6,92,0.00,-SN,,0.00,76.0,WeatherDisplay:10.37,2013-03-05 14:52:00,
2013-03-05 08:57:00,25.0,23.0,30.03,North,5,4.4,7.2,92,0.00,-SN,,0.00,70.0,WeatherDisplay:10.37,2013-03-05 14:57:00,
2013-03-05 09:02:00,25.0,23.0,30.03,NNE,32,4.9,6.0,92,0.00,-SN,,0.00,67.0,WeatherDisplay:10.37,2013-03-05 15:02:00,
2013-03-05 09:07:00,25.0,23.3,30.03,NE,42,3.1,4.8,93,0.00,-SN,,0.00,69.0,WeatherDisplay:10.37,2013-03-05 15:07:00,
2013-03-05 09:12:00,25.0,23.3,30.03,NE,52,4.0,6.0,93,0.00,-SN,,0.00,70.0,WeatherDisplay:10.37,2013-03-05 15:12:00,
2013-03-05 09:17:00,25.0,23.3,30.03,NE,47,1.7,4.8,93,0.00,-SN,,0.00,83.0,WeatherDisplay:10.37,2013-03-05 15:17:00,
2013-03-05 09:22:00,25.1,23.4,30.03,NE,47,4.0,4.8,93,0.00,OVC,,0.00,98.0,WeatherDisplay:10.37,2013-03-05 15:22:00,
2013-03-05 09:27:00,25.1,23.4,30.03,ENE,63,5.4,6.0,93,0.00,OVC,,0.00,105.0,WeatherDisplay:10.37,2013-03-05 15:27:00,
2013-03-05 09:32:00,25.1,23.4,30.02,ENE,57,2.7,6.0,93,0.00,OVC,,0.00,109.0,WeatherDisplay:10.37,2013-03-05 15:32:00,
2013-03-05 09:37:00,25.1,23.4,30.02,NE,49,5.2,9.2,93,0.00,OVC,,0.00,105.0,WeatherDisplay:10.37,2013-03-05 15:37:00,
2013-03-05 09:42:00,25.1,23.4,30.02,NE,53,5.5,6.0,93,0.00,-SN,,0.00,109.0,WeatherDisplay:10.37,2013-03-05 15:42:00,
2013-03-05 09:47:00,25.1,23.4,30.02,NE,47,5.5,8.4,93,0.00,-SN,,0.00,123.0,WeatherDisplay:10.37,2013-03-05 15:47:00,
2013-03-05 09:52:00,25.1,23.6,30.02,NNE,23,5.8,7.2,94,0.00,-SN,,0.00,121.0,WeatherDisplay:10.37,2013-03-05 15:52:00,
2013-03-05 09:57:00,25.1,23.6,30.02,NNE,20,3.0,6.0,94,0.00,-SN,,0.00,123.0,WeatherDisplay:10.37,2013-03-05 15:57:00,
2013-03-05 10:02:00,25.1,23.6,30.02,NE,48,2.7,4.8,94,0.00,-SN,,0.00,132.0,WeatherDisplay:10.37,2013-03-05 16:02:00,
2013-03-05 10:07:00,25.1,23.6,30.02,NNE,30,4.0,7.2,94,0.00,-SN,,0.00,128.0,WeatherDisplay:10.37,2013-03-05 16:07:00,
2013-03-05 10:12:00,25.1,23.6,30.02,North,5,0.7,3.6,94,0.00,-SN,,0.00,123.0,WeatherDisplay:10.37,2013-03-05 16:12:00,
2013-03-05 10:17:00,25.1,23.6,30.02,NE,42,8.3,9.6,94,0.00,-SN,,0.00,123.0,WeatherDisplay:10.37,2013-03-05 16:17:00,
2013-03-05 10:22:00,25.1,23.6,30.02,ENE,65,3.1,6.9,94,0.00,-SN,,0.00,127.0,WeatherDisplay:10.37,2013-03-05 16:22:00,
2013-03-05 10:27:00,25.1,23.6,30.02,NE,51,6.6,9.2,94,0.00,-SN,,0.00,127.0,WeatherDisplay:10.37,2013-03-05 16:27:00,
2013-03-05 10:32:00,25.0,23.5,30.01,North,350,6.0,8.4,94,0.00,-SN,,0.00,116.0,WeatherDisplay:10.37,2013-03-05 16:32:00,
2013-03-05 10:37:00,25.0,23.5,30.01,NE,36,5.8,6.9,94,0.00,-SN,,0.00,107.0,WeatherDisplay:10.37,2013-03-05 16:37:00,
2013-03-05 10:42:00,25.0,23.5,30.01,NNE,19,3.1,6.0,94,0.00,-SN,,0.00,111.0,WeatherDisplay:10.37,2013-03-05 16:42:00,
2013-03-05 10:47:00,25.0,23.5,30.00,NNE,30,3.8,5.8,94,0.00,-SN,,0.00,107.0,WeatherDisplay:10.37,2013-03-05 16:47:00,
2013-03-05 10:52:00,25.0,23.5,30.00,NE,49,5.7,8.4,94,0.00,-SN,,0.00,111.0,WeatherDisplay:10.37,2013-03-05 16:52:00,
2013-03-05 10:57:00,25.0,23.5,30.00,NE,53,5.5,7.2,94,0.00,-SN,,0.00,128.0,WeatherDisplay:10.37,2013-03-05 16:57:00,
2013-03-05 11:02:00,25.0,23.5,29.99,NE,49,5.4,7.2,94,0.00,-SN,,0.00,121.0,WeatherDisplay:10.37,2013-03-05 17:02:00,
2013-03-05 11:07:00,25.0,23.5,29.99,ENE,70,4.7,8.4,94,0.00,-SN,,0.00,141.0,WeatherDisplay:10.37,2013-03-05 17:07:00,
2013-03-05 11:12:00,24.8,23.3,29.99,ENE,69,7.1,11.5,94,0.00,OVC,,0.00,160.0,WeatherDisplay:10.37,2013-03-05 17:12:00,
2013-03-05 11:17:00,25.0,23.5,29.99,NNE,27,3.8,6.0,94,0.00,OVC,,0.00,149.0,WeatherDisplay:10.37,2013-03-05 17:17:00,
2013-03-05 11:22:00,25.0,23.8,29.99,NNE,32,6.1,7.2,95,0.00,-SN,,0.00,163.0,WeatherDisplay:10.37,2013-03-05 17:22:00,
2013-03-05 11:27:00,25.1,23.9,29.99,NNE,28,2.1,4.8,95,0.00,-SN,,0.00,181.0,WeatherDisplay:10.37,2013-03-05 17:27:00,
2013-03-05 11:32:00,25.1,23.9,29.99,NE,49,1.0,2.4,95,0.00,-SN,,0.00,178.0,WeatherDisplay:10.37,2013-03-05 17:32:00,
2013-03-05 11:37:00,25.3,24.1,29.99,ENE,57,4.4,9.6,95,0.00,-SN,,0.00,239.0,WeatherDisplay:10.37,2013-03-05 17:37:00,
2013-03-05 11:42:00,25.4,24.2,29.99,NNE,24,4.1,7.2,95,0.00,-SN,,0.00,262.0,WeatherDisplay:10.37,2013-03-05 17:42:00,
2013-03-05 11:47:00,25.6,24.4,29.99,NNE,28,3.5,6.0,95,0.00,-SN,,0.00,257.0,WeatherDisplay:10.37,2013-03-05 17:47:00,
2013-03-05 11:52:00,25.7,24.5,29.99,NNE,12,2.4,4.8,95,0.00,-SN,,0.00,244.0,WeatherDisplay:10.37,2013-03-05 17:52:00,
2013-03-05 11:57:00,25.7,24.5,29.99,NNE,24,1.8,5.8,95,0.00,-SN,,0.00,246.0,WeatherDisplay:10.37,2013-03-05 17:57:00,
2013-03-05 12:02:00,25.8,24.6,29.99,ENE,59,6.4,8.4,95,0.00,-SN,,0.00,264.0,WeatherDisplay:10.37,2013-03-05 18:02:00,
2013-03-05 12:07:00,25.8,24.6,29.99,NNE,19,0.6,2.4,95,0.00,-SN,,0.00,262.0,WeatherDisplay:10.37,2013-03-05 18:07:00,
2013-03-05 12:12:00,26.0,24.8,29.99,NE,48,4.2,6.0,95,0.00,-SN,,0.00,236.0,WeatherDisplay:10.37,2013-03-05 18:12:00,
2013-03-05 12:17:00,26.1,24.9,29.99,NNE,30,6.5,7.2,95,0.00,-SN,,0.00,230.0,WeatherDisplay:10.37,2013-03-05 18:17:00,
2013-03-05 12:22:00,26.1,24.9,29.99,North,360,4.2,8.1,95,0.00,-SN,,0.00,269.0,WeatherDisplay:10.37,2013-03-05 18:22:00,
2013-03-05 12:27:00,26.3,25.1,29.99,NNE,24,3.9,6.0,95,0.00,-SN,,0.00,239.0,WeatherDisplay:10.37,2013-03-05 18:27:00,
2013-03-05 12:32:00,26.3,25.1,29.98,NNE,23,5.0,6.0,95,0.00,-SN,,0.00,255.0,WeatherDisplay:10.37,2013-03-05 18:32:00,
2013-03-05 12:37:00,26.4,25.2,29.98,North,5,3.7,5.8,95,0.00,-SN,,0.00,264.0,WeatherDisplay:10.37,2013-03-05 18:37:00,
2013-03-05 12:42:00,26.4,25.4,29.98,ENE,59,2.9,6.0,96,0.00,-SN,,0.00,279.0,WeatherDisplay:10.37,2013-03-05 18:42:00,
2013-03-05 12:47:00,26.6,25.6,29.97,NNE,30,2.4,3.6,96,0.00,-SN,,0.00,295.0,WeatherDisplay:10.37,2013-03-05 18:47:00,
2013-03-05 12:52:00,26.7,25.7,29.97,NE,40,4.8,7.2,96,0.00,-SN,,0.00,283.0,WeatherDisplay:10.37,2013-03-05 18:52:00,
2013-03-05 12:57:00,26.7,25.7,29.97,NNE,20,4.2,6.0,96,0.00,-SN,,0.00,258.0,WeatherDisplay:10.37,2013-03-05 18:57:00,
2013-03-05 13:02:00,26.9,25.9,29.98,NNE,27,1.0,3.6,96,0.00,-SN,,0.00,308.0,WeatherDisplay:10.37,2013-03-05 19:02:00,
2013-03-05 13:07:00,27.0,26.0,29.98,NE,51,3.5,6.0,96,0.00,-SN,,0.00,295.0,WeatherDisplay:10.37,2013-03-05 19:07:00,
2013-03-05 13:12:00,27.0,26.0,29.98,NNE,13,3.1,6.0,96,0.00,-SN,,0.00,269.0,WeatherDisplay:10.37,2013-03-05 19:12:00,
2013-03-05 13:17:00,27.0,26.0,29.98,NNE,21,4.5,6.0,96,0.00,-SN,,0.00,267.0,WeatherDisplay:10.37,2013-03-05 19:17:00,
2013-03-05 13:22:00,27.2,26.2,29.98,NNE,16,5.3,8.4,96,0.00,-SN,,0.00,258.0,WeatherDisplay:10.37,2013-03-05 19:22:00,
2013-03-05 13:27:00,27.0,25.8,29.98,NNE,20,5.6,9.2,95,0.00,-SN,,0.00,241.0,WeatherDisplay:10.37,2013-03-05 19:27:00,
2013-03-05 13:32:00,26.9,25.7,29.99,NNE,14,5.1,6.0,95,0.00,-SN,,0.00,244.0,WeatherDisplay:10.37,2013-03-05 19:32:00,
2013-03-05 13:37:00,27.0,26.0,29.99,North,5,2.8,4.8,96,0.00,-SN,,0.00,232.0,WeatherDisplay:10.37,2013-03-05 19:37:00,
2013-03-05 13:42:00,27.0,26.0,29.99,NNE,15,5.6,6.9,96,0.00,-SN,,0.00,258.0,WeatherDisplay:10.37,2013-03-05 19:42:00,
2013-03-05 13:47:00,27.0,25.8,29.99,NE,49,0.2,3.5,95,0.00,-SN,,0.00,236.0,WeatherDisplay:10.37,2013-03-05 19:47:00,
2013-03-05 13:52:00,26.9,25.7,29.99,NNE,22,5.2,7.2,95,0.00,-SN,,0.00,288.0,WeatherDisplay:10.37,2013-03-05 19:52:00,
2013-03-05 13:57:00,26.9,25.7,29.99,North,5,3.9,6.0,95,0.00,-SN,,0.00,311.0,WeatherDisplay:10.37,2013-03-05 19:57:00,
2013-03-05 14:02:00,27.0,25.8,29.99,North,5,3.7,6.0,95,0.00,-SN,,0.00,204.0,WeatherDisplay:10.37,2013-03-05 20:02:00,
2013-03-05 14:07:00,27.0,25.8,29.99,NNE,18,2.4,4.6,95,0.00,-SN,,0.00,221.0,WeatherDisplay:10.37,2013-03-05 20:07:00,
2013-03-05 14:12:00,27.0,25.8,29.99,North,5,5.3,8.4,95,0.00,-SN,,0.00,206.0,WeatherDisplay:10.37,2013-03-05 20:12:00,
2013-03-05 14:18:00,27.0,25.8,30.00,NE,34,4.8,9.2,95,0.00,-SN,,0.00,220.0,WeatherDisplay:10.37,2013-03-05 20:18:00,
2013-03-05 14:23:00,26.9,25.7,30.00,NNE,26,6.0,6.0,95,0.00,-SN,,0.00,234.0,WeatherDisplay:10.37,2013-03-05 20:23:00,
2013-03-05 14:28:00,26.9,25.7,30.00,NNE,13,5.4,6.0,95,0.00,-SN,,0.00,213.0,WeatherDisplay:10.37,2013-03-05 20:28:00,
2013-03-05 14:33:00,26.9,25.7,30.00,NNE,28,5.3,8.4,95,0.00,-SN,,0.00,202.0,WeatherDisplay:10.37,2013-03-05 20:33:00,
2013-03-05 14:38:00,26.9,25.7,30.00,NNE,21,7.4,8.4,95,0.00,-SN,,0.00,218.0,WeatherDisplay:10.37,2013-03-05 20:38:00,
2013-03-05 14:43:00,26.9,25.7,30.00,North,5,1.6,3.6,95,0.00,-SN,,0.00,227.0,WeatherDisplay:10.37,2013-03-05 20:43:00,
2013-03-05 14:48:00,27.0,25.8,30.01,North,355,1.4,4.8,95,0.00,-SN,,0.00,213.0,WeatherDisplay:10.37,2013-03-05 20:48:00,
2013-03-05 14:53:00,27.0,25.8,30.01,NNE,19,1.9,6.9,95,0.01,-SN,,0.01,264.0,WeatherDisplay:10.37,2013-03-05 20:53:00,
2013-03-05 14:58:00,27.2,26.0,30.01,NNE,17,6.1,6.1,95,0.01,-SN,,0.01,204.0,WeatherDisplay:10.37,2013-03-05 20:58:00,
2013-03-05 15:03:00,27.2,26.0,30.02,NNE,24,2.5,4.8,95,0.01,-SN,,0.01,151.0,WeatherDisplay:10.37,2013-03-05 21:03:00,
2013-03-05 15:08:00,27.2,26.0,30.02,North,9,5.6,7.2,95,0.01,-SN,,0.01,160.0,WeatherDisplay:10.37,2013-03-05 21:08:00,
2013-03-05 15:13:00,27.2,26.0,30.02,NNE,17,5.5,6.0,95,0.01,-SN,,0.01,179.0,WeatherDisplay:10.37,2013-03-05 21:13:00,
2013-03-05 15:18:00,27.2,26.0,30.02,NNE,21,7.4,9.6,95,0.01,-SN,,0.01,183.0,WeatherDisplay:10.37,2013-03-05 21:18:00,
2013-03-05 15:23:00,27.2,26.0,30.02,North,11,4.6,6.0,95,0.01,-SN,,0.01,172.0,WeatherDisplay:10.37,2013-03-05 21:23:00,
2013-03-05 15:28:00,27.2,26.0,30.02,NNE,16,8.0,9.6,95,0.01,-SN,,0.01,142.0,WeatherDisplay:10.37,2013-03-05 21:28:00,
2013-03-05 15:33:00,27.2,26.0,30.02,NNE,21,5.7,6.0,95,0.01,-SN,,0.01,162.0,WeatherDisplay:10.37,2013-03-05 21:33:00,
2013-03-05 15:38:00,27.2,26.0,30.02,North,9,5.5,7.2,95,0.01,-SN,,0.01,169.0,WeatherDisplay:10.37,2013-03-05 21:38:00,
2013-03-05 15:43:00,27.3,26.1,30.02,NE,34,4.5,6.9,95,0.01,-SN,,0.01,134.0,WeatherDisplay:10.37,2013-03-05 21:43:00,
2013-03-05 15:48:00,27.3,26.1,30.03,NNE,24,0.2,2.3,95,0.01,-SN,,0.01,118.0,WeatherDisplay:10.37,2013-03-05 21:48:00,
2013-03-05 15:53:00,27.3,26.1,30.03,NNE,28,5.0,6.0,95,0.00,-SN,,0.01,104.0,WeatherDisplay:10.37,2013-03-05 21:53:00,
2013-03-05 15:58:00,27.3,26.1,30.03,North,355,2.6,4.8,95,0.00,-SN,,0.01,104.0,WeatherDisplay:10.37,2013-03-05 21:58:00,
2013-03-05 16:03:00,27.3,26.1,30.04,NNE,15,6.0,7.2,95,0.00,-SN,,0.01,107.0,WeatherDisplay:10.37,2013-03-05 22:03:00,
2013-03-05 16:08:00,27.2,26.0,30.04,NNE,33,5.3,7.2,95,0.00,-SN,,0.01,90.0,WeatherDisplay:10.37,2013-03-05 22:08:00,
2013-03-05 16:13:00,27.2,26.0,30.04,NNE,20,6.4,9.2,95,0.00,-SN,,0.01,83.0,WeatherDisplay:10.37,2013-03-05 22:13:00,
2013-03-05 16:18:00,27.0,25.8,30.05,North,11,7.0,9.2,95,0.00,-SN,,0.01,91.0,WeatherDisplay:10.37,2013-03-05 22:18:00,
2013-03-05 16:23:00,26.9,25.7,30.05,NNW,346,6.4,7.2,95,0.00,-SN,,0.01,90.0,WeatherDisplay:10.37,2013-03-05 22:23:00,
2013-03-05 16:28:00,26.9,25.7,30.05,NNE,30,5.3,7.2,95,0.00,-SN,,0.01,76.0,WeatherDisplay:10.37,2013-03-05 22:28:00,
2013-03-05 16:33:00,26.9,25.7,30.05,NNE,33,5.5,7.2,95,0.00,-SN,,0.01,63.0,WeatherDisplay:10.37,2013-03-05 22:33:00,
2013-03-05 16:38:00,26.9,25.7,30.05,NNE,13,4.5,6.0,95,0.00,-SN,,0.01,53.0,WeatherDisplay:10.37,2013-03-05 22:38:00,
2013-03-05 16:43:00,26.9,25.7,30.05,NNE,18,6.4,7.2,95,0.00,-SN,,0.01,54.0,WeatherDisplay:10.37,2013-03-05 22:43:00,
2013-03-05 16:48:00,26.7,25.5,30.06,North,350,9.4,12.0,95,0.00,-SN,,0.01,47.0,WeatherDisplay:10.37,2013-03-05 22:48:00,
2013-03-05 16:53:00,26.6,25.4,30.06,NNE,32,6.6,9.2,95,0.00,-SN,,0.01,40.0,WeatherDisplay:10.37,2013-03-05 22:53:00,
2013-03-05 16:58:00,26.4,25.2,30.06,NNE,31,6.4,9.6,95,0.00,-SN,,0.01,33.0,WeatherDisplay:10.37,2013-03-05 22:58:00,
2013-03-05 17:03:00,26.4,25.2,30.07,NNE,13,6.6,7.2,95,0.00,-SN,,0.01,28.0,WeatherDisplay:10.37,2013-03-05 23:03:00,
2013-03-05 17:08:00,26.4,25.2,30.07,NNW,348,3.5,6.9,95,0.00,-SN,,0.01,23.0,WeatherDisplay:10.37,2013-03-05 23:08:00,
2013-03-05 17:13:00,26.4,25.2,30.07,NNE,25,3.1,3.6,95,0.00,-SN,,0.01,18.0,WeatherDisplay:10.37,2013-03-05 23:13:00,
2013-03-05 17:18:00,26.4,25.2,30.07,NNE,25,1.7,4.6,95,0.00,-SN,,0.01,16.0,WeatherDisplay:10.37,2013-03-05 23:18:00,
2013-03-05 17:23:00,26.4,25.2,30.07,NNE,20,5.4,6.0,95,0.00,-SN,,0.01,16.0,WeatherDisplay:10.37,2013-03-05 23:23:00,
2013-03-05 17:28:00,26.4,25.2,30.07,NNE,27,1.1,3.6,95,0.00,-SN,,0.01,12.0,WeatherDisplay:10.37,2013-03-05 23:28:00,
2013-03-05 17:33:00,26.4,25.2,30.08,North,355,2.5,4.6,95,0.00,-SN,,0.01,11.0,WeatherDisplay:10.37,2013-03-05 23:33:00,
2013-03-05 17:38:00,26.4,25.2,30.08,NW,315,4.4,4.8,95,0.00,-SN,,0.01,7.0,WeatherDisplay:10.37,2013-03-05 23:38:00,
2013-03-05 17:43:00,26.4,25.2,30.08,NNW,340,4.3,6.0,95,0.00,-SN,,0.01,5.0,WeatherDisplay:10.37,2013-03-05 23:43:00,
2013-03-05 17:48:00,26.3,25.1,30.08,NW,312,1.7,4.8,95,0.00,-SN,,0.01,0.0,WeatherDisplay:10.37,2013-03-05 23:48:00,
2013-03-05 17:53:00,26.3,25.1,30.08,North,360,0.6,6.0,95,0.00,-SN,,0.01,0.0,WeatherDisplay:10.37,2013-03-05 23:53:00,
2013-03-05 17:58:00,26.3,25.1,30.08,NNW,344,0.0,0.0,95,0.00,-SN,,0.01,0.0,WeatherDisplay:10.37,2013-03-05 23:58:00,
2013-03-05 18:03:00,26.1,24.9,30.09,North,355,2.8,3.6,95,0.00,-SN,,0.01,0.0,WeatherDisplay:10.37,2013-03-06 00:03:00,
2013-03-05 18:08:00,26.1,24.9,30.09,NNW,333,1.7,3.6,95,0.00,-SN,,0.01,0.0,WeatherDisplay:10.37,2013-03-06 00:08:00,
2013-03-05 18:13:00,26.1,24.9,30.09,North,355,4.4,8.4,95,0.00,-SN,,0.01,0.0,WeatherDisplay:10.37,2013-03-06 00:13:00,
2013-03-05 18:18:00,26.1,24.9,30.10,NNW,330,2.7,4.8,95,0.00,-SN,,0.01,0.0,WeatherDisplay:10.37,2013-03-06 00:18:00,
2013-03-05 18:23:00,26.0,24.8,30.10,North,5,3.9,6.0,95,0.00,-SN,,0.01,0.0,WeatherDisplay:10.37,2013-03-06 00:23:00,
2013-03-05 18:28:00,26.0,24.8,30.10,NNW,338,1.9,3.6,95,0.00,-SN,,0.01,0.0,WeatherDisplay:10.37,2013-03-06 00:28:00,
2013-03-05 18:33:00,26.0,24.8,30.10,NNW,335,1.3,4.6,95,0.00,-SN,,0.01,0.0,WeatherDisplay:10.37,2013-03-06 00:33:00,
2013-03-05 18:38:00,26.0,24.8,30.10,NNW,347,0.9,5.8,95,0.00,-SN,,0.01,0.0,WeatherDisplay:10.37,2013-03-06 00:38:00,
2013-03-05 18:43:00,26.0,24.8,30.10,NNW,343,4.9,6.0,95,0.00,-SN,,0.01,0.0,WeatherDisplay:10.37,2013-03-06 00:43:00,
2013-03-05 18:48:00,26.0,24.8,30.11,NNW,328,0.3,2.4,95,0.00,-SN,,0.01,0.0,WeatherDisplay:10.37,2013-03-06 00:48:00,
2013-03-05 18:53:00,26.0,24.8,30.11,NW,317,4.5,6.0,95,0.00,-SN,,0.01,0.0,WeatherDisplay:10.37,2013-03-06 00:53:00,
2013-03-05 18:58:00,26.0,24.8,30.11,NNW,346,0.7,2.4,95,0.00,-SN,,0.01,0.0,WeatherDisplay:10.37,2013-03-06 00:58:00,
2013-03-05 19:03:00,26.0,24.8,30.11,NNW,330,2.3,4.8,95,0.00,-SN,,0.01,0.0,WeatherDisplay:10.37,2013-03-06 01:03:00,
2013-03-05 19:08:00,26.0,24.8,30.11,NW,320,1.3,3.6,95,0.00,-SN,,0.01,0.0,WeatherDisplay:10.37,2013-03-06 01:08:00,
2013-03-05 19:13:00,26.0,24.8,30.11,NNW,329,5.5,6.0,95,0.00,-SN,,0.01,0.0,WeatherDisplay:10.37,2013-03-06 01:13:00,
2013-03-05 19:18:00,26.0,24.8,30.12,NNW,337,0.5,2.4,95,0.00,-SN,,0.01,0.0,WeatherDisplay:10.37,2013-03-06 01:18:00,
2013-03-05 19:23:00,26.0,24.8,30.12,NW,315,1.1,3.6,95,0.00,-SN,,0.01,0.0,WeatherDisplay:10.37,2013-03-06 01:23:00,
2013-03-05 19:28:00,26.0,24.8,30.12,NNE,17,4.4,6.0,95,0.00,-SN,,0.01,0.0,WeatherDisplay:10.37,2013-03-06 01:28:00,
2013-03-05 19:33:00,26.0,24.8,30.12,NNE,23,4.2,9.6,95,0.00,-SN,,0.01,0.0,WeatherDisplay:10.37,2013-03-06 01:33:00,
2013-03-05 19:38:00,26.0,24.8,30.12,North,360,1.5,3.6,95,0.00,-SN,,0.01,0.0,WeatherDisplay:10.37,2013-03-06 01:38:00,
2013-03-05 19:43:00,26.0,24.8,30.12,NNW,331,2.6,6.9,95,0.00,BKN,,0.01,0.0,WeatherDisplay:10.37,2013-03-06 01:43:00,
2013-03-05 19:48:00,25.8,24.6,30.12,NW,306,4.1,7.2,95,0.00,BKN,,0.01,0.0,WeatherDisplay:10.37,2013-03-06 01:48:00,
2013-03-05 19:53:00,25.8,24.6,30.12,North,5,0.0,0.0,95,0.00,BKN,,0.01,0.0,WeatherDisplay:10.37,2013-03-06 01:53:00,
2013-03-05 19:58:00,25.8,24.6,30.12,North,5,1.2,3.6,95,0.00,BKN,,0.01,0.0,WeatherDisplay:10.37,2013-03-06 01:58:00,
2013-03-05 20:03:00,25.7,24.5,30.12,NW,319,0.2,1.2,95,0.00,BKN,,0.01,0.0,WeatherDisplay:10.37,2013-03-06 02:03:00,
2013-03-05 20:08:00,25.6,24.4,30.12,NW,304,0.0,0.0,95,0.00,BKN,,0.01,0.0,WeatherDisplay:10.37,2013-03-06 02:08:00,
2013-03-05 20:13:00,25.4,24.2,30.12,NW,304,1.2,2.4,95,0.00,BKN,,0.01,0.0,WeatherDisplay:10.37,2013-03-06 02:13:00,
2013-03-05 20:18:00,25.3,24.1,30.13,NW,309,1.9,2.4,95,0.00,BKN,,0.01,0.0,WeatherDisplay:10.37,2013-03-06 02:18:00,
2013-03-05 20:23:00,25.1,23.9,30.13,NW,304,0.0,0.0,95,0.00,BKN,,0.01,0.0,WeatherDisplay:10.37,2013-03-06 02:23:00,
2013-03-05 20:28:00,25.0,23.8,30.13,WNW,302,0.5,2.4,95,0.00,BKN,,0.01,0.0,WeatherDisplay:10.37,2013-03-06 02:28:00,
2013-03-05 20:33:00,24.8,23.6,30.13,WNW,300,0.0,0.0,95,0.00,BKN,,0.01,0.0,WeatherDisplay:10.37,2013-03-06 02:33:00,
2013-03-05 20:38:00,24.7,23.5,30.13,WNW,300,0.5,2.4,95,0.00,BKN,,0.01,0.0,WeatherDisplay:10.37,2013-03-06 02:38:00,
2013-03-05 20:43:00,24.4,23.2,30.13,WNW,282,0.3,2.4,95,0.00,BKN,,0.01,0.0,WeatherDisplay:10.37,2013-03-06 02:43:00,
2013-03-05 20:48:00,24.2,23.0,30.14,WNW,284,0.1,1.2,95,0.00,BKN,,0.01,0.0,WeatherDisplay:10.37,2013-03-06 02:48:00,
2013-03-05 20:53:00,24.1,22.9,30.14,WNW,284,0.0,1.2,95,0.00,BKN,,0.01,0.0,WeatherDisplay:10.37,2013-03-06 02:53:00,
2013-03-05 20:58:00,23.9,22.7,30.14,WNW,284,0.3,3.6,95,0.00,BKN,,0.01,0.0,WeatherDisplay:10.37,2013-03-06 02:58:00,
2013-03-05 21:03:00,23.8,22.3,30.14,WNW,284,0.0,0.0,94,0.00,BKN,,0.01,0.0,WeatherDisplay:10.37,2013-03-06 03:03:00,
2013-03-05 21:08:00,23.6,22.4,30.14,WNW,300,0.6,2.4,95,0.00,BKN,,0.01,0.0,WeatherDisplay:10.37,2013-03-06 03:08:00,
2013-03-05 21:13:00,23.5,22.3,30.14,WNW,292,0.5,2.4,95,0.00,BKN,,0.01,0.0,WeatherDisplay:10.37,2013-03-06 03:13:00,
2013-03-05 21:18:00,23.3,21.8,30.14,WNW,292,0.0,0.0,94,0.00,BKN,,0.01,0.0,WeatherDisplay:10.37,2013-03-06 03:18:00,
2013-03-05 21:23:00,23.2,21.7,30.14,WNW,292,0.2,2.4,94,0.00,BKN,,0.01,0.0,WeatherDisplay:10.37,2013-03-06 03:23:00,
2013-03-05 21:28:00,23.0,21.5,30.14,WNW,302,0.7,3.6,94,0.00,BKN,,0.01,0.0,WeatherDisplay:10.37,2013-03-06 03:28:00,
2013-03-05 21:33:00,23.0,21.5,30.15,WNW,290,0.0,1.2,94,0.00,BKN,,0.01,0.0,WeatherDisplay:10.37,2013-03-06 03:33:00,
2013-03-05 21:38:00,22.9,21.4,30.15,WNW,290,0.0,0.0,94,0.00,BKN,,0.01,0.0,WeatherDisplay:10.37,2013-03-06 03:38:00,
2013-03-05 21:43:00,22.9,21.4,30.15,WNW,290,0.5,2.4,94,0.00,SCT,,0.01,0.0,WeatherDisplay:10.37,2013-03-06 03:43:00,
2013-03-05 21:48:00,22.7,21.2,30.16,WNW,290,0.8,3.6,94,0.00,SCT,,0.01,0.0,WeatherDisplay:10.37,2013-03-06 03:48:00,
2013-03-05 21:53:00,22.7,21.2,30.16,NW,314,2.0,4.8,94,0.00,SCT,,0.01,0.0,WeatherDisplay:10.37,2013-03-06 03:53:00,
2013-03-05 21:58:00,22.7,21.2,30.16,WNW,296,1.7,4.8,94,0.00,SCT,,0.01,0.0,WeatherDisplay:10.37,2013-03-06 03:58:00,
2013-03-05 22:03:00,22.7,21.2,30.16,WNW,291,4.2,7.2,94,0.00,-SN,,0.01,0.0,WeatherDisplay:10.37,2013-03-06 04:03:00,
2013-03-05 22:08:00,22.7,21.2,30.16,WNW,296,5.2,7.2,94,0.00,-SN,,0.01,0.0,WeatherDisplay:10.37,2013-03-06 04:08:00,
2013-03-05 22:13:00,22.9,21.4,30.16,WNW,299,2.7,4.8,94,0.00,-SN,,0.01,0.0,WeatherDisplay:10.37,2013-03-06 04:13:00,
2013-03-05 22:18:00,23.0,21.5,30.17,NW,308,3.6,6.9,94,0.00,-SN,,0.01,0.0,WeatherDisplay:10.37,2013-03-06 04:18:00,
2013-03-05 22:23:00,23.0,21.5,30.17,NW,308,1.5,3.6,94,0.00,-SN,,0.01,0.0,WeatherDisplay:10.37,2013-03-06 04:23:00,
2013-03-05 22:28:00,23.3,22.1,30.17,NW,312,0.2,3.5,95,0.00,-SN,,0.01,0.0,WeatherDisplay:10.37,2013-03-06 04:28:00,
2013-03-05 22:33:00,23.5,22.3,30.17,NW,315,1.2,2.4,95,0.00,-SN,,0.01,0.0,WeatherDisplay:10.37,2013-03-06 04:33:00,
2013-03-05 22:38:00,23.6,22.1,30.17,NNW,329,4.2,4.8,94,0.00,-SN,,0.01,0.0,WeatherDisplay:10.37,2013-03-06 04:38:00,
2013-03-05 22:43:00,23.8,22.3,30.17,WNW,287,0.1,1.2,94,0.00,-SN,,0.01,0.0,WeatherDisplay:10.37,2013-03-06 04:43:00,
2013-03-05 22:48:00,23.9,22.4,30.17,NW,306,4.2,6.0,94,0.00,-SN,,0.01,0.0,WeatherDisplay:10.37,2013-03-06 04:48:00,
2013-03-05 22:53:00,24.1,22.6,30.17,NW,318,5.0,7.2,94,0.00,-SN,,0.01,0.0,WeatherDisplay:10.37,2013-03-06 04:53:00,
2013-03-05 22:58:00,24.1,22.6,30.17,NW,316,4.0,5.8,94,0.00,-SN,,0.01,0.0,WeatherDisplay:10.37,2013-03-06 04:58:00,
2013-03-05 23:00:00,24.1,22.6,30.17,NW,309,2.4,6.0,94,0.00,-SN,,0.01,0.0,WeatherDisplay:10.37,2013-03-06 05:00:00,
2013-03-05 23:01:00,24.1,22.6,30.17,North,355,4.5,7.2,94,0.00,-SN,,0.01,0.0,WeatherDisplay:10.37,2013-03-06 05:01:00,
2013-03-05 23:02:00,24.2,22.7,30.17,NW,314,4.9,6.9,94,0.00,-SN,,0.01,0.0,WeatherDisplay:10.37,2013-03-06 05:02:00,
2013-03-05 23:07:00,24.2,22.7,30.17,WNW,290,4.0,8.1,94,0.00,-SN,,0.01,0.0,WeatherDisplay:10.37,2013-03-06 05:07:00,
2013-03-05 23:12:00,24.4,22.9,30.17,NW,304,4.0,6.0,94,0.00,-SN,,0.01,0.0,WeatherDisplay:10.37,2013-03-06 05:12:00,
2013-03-05 23:17:00,24.4,22.9,30.18,NNW,329,2.0,3.6,94,0.00,-SN,,0.01,0.0,WeatherDisplay:10.37,2013-03-06 05:17:00,
2013-03-05 23:22:00,24.4,22.9,30.18,WNW,301,3.9,4.8,94,0.00,-SN,,0.01,0.0,WeatherDisplay:10.37,2013-03-06 05:22:00,
2013-03-05 23:27:00,24.5,23.0,30.18,NW,319,4.9,8.4,94,0.00,-SN,,0.01,0.0,WeatherDisplay:10.37,2013-03-06 05:27:00,
2013-03-05 23:32:00,24.5,23.0,30.19,NNW,337,3.4,5.8,94,0.00,-SN,,0.01,0.0,WeatherDisplay:10.37,2013-03-06 05:32:00,
2013-03-05 23:37:00,24.5,23.0,30.19,NW,310,3.1,4.8,94,0.00,-SN,,0.01,0.0,WeatherDisplay:10.37,2013-03-06 05:37:00,
2013-03-05 23:42:00,24.5,23.0,30.19,NW,306,4.2,6.0,94,0.00,BKN,,0.01,0.0,WeatherDisplay:10.37,2013-03-06 05:42:00,
2013-03-05 23:47:00,24.5,22.8,30.19,NW,308,4.5,6.0,93,0.00,BKN,,0.01,0.0,WeatherDisplay:10.37,2013-03-06 05:47:00,
2013-03-05 23:52:00,24.5,22.8,30.19,WNW,300,5.4,8.4,93,0.00,BKN,,0.01,0.0,WeatherDisplay:10.37,2013-03-06 05:52:00,
2013-03-05 23:57:00,24.5,22.8,30.19,WNW,301,4.4,6.0,93,0.00,BKN,,0.01,0.0,WeatherDisplay:10.37,2013-03-06 05:57:00,